TimeCDT,TemperatureF,Dew PointF,Humidity,Sea Level PressureIn,VisibilityMPH,Wind Direction,Wind SpeedMPH,Gust SpeedMPH,PrecipitationIn,Events,Conditions,WindDirDegrees,DateUTC
12:15 AM,81.7,58.5,45,29.96,10.0,SSE,6.9,-,N/A,,Clear,160,2013-09-10 05:15:00
12:35 AM,81.9,58.5,45,29.97,10.0,SSE,9.2,-,N/A,,Clear,160,2013-09-10 05:35:00
12:55 AM,82.8,58.6,44,29.97,10.0,SSE,13.8,-,N/A,,Clear,160,2013-09-10 05:55:00
1:15 AM,82.9,59.2,44,29.97,10.0,South,12.7,-,N/A,,Clear,170,2013-09-10 06:15:00
1:35 AM,82.4,59.9,46,29.98,10.0,South,11.5,16.1,N/A,,Clear,170,2013-09-10 06:35:00
1:55 AM,82.0,61.2,49,29.98,10.0,South,16.1,-,N/A,,Clear,180,2013-09-10 06:55:00
2:15 AM,81.7,62.4,52,29.99,10.0,South,15.0,19.6,N/A,,Clear,170,2013-09-10 07:15:00
2:35 AM,81.0,63.0,54,29.99,10.0,South,11.5,17.3,N/A,,Clear,180,2013-09-10 07:35:00
2:55 AM,80.4,63.5,56,29.99,10.0,South,12.7,-,N/A,,Clear,180,2013-09-10 07:55:00
3:15 AM,79.9,63.5,57,30.00,10.0,South,11.5,-,N/A,,Clear,190,2013-09-10 08:15:00
3:35 AM,79.7,63.3,57,30.00,10.0,South,11.5,-,N/A,,Clear,180,2013-09-10 08:35:00
3:55 AM,79.2,62.8,57,30.01,10.0,South,9.2,-,N/A,,Clear,180,2013-09-10 08:55:00
4:15 AM,78.1,62.8,59,30.01,10.0,South,5.8,-,N/A,,Clear,170,2013-09-10 09:15:00
4:35 AM,76.8,63.3,63,30.01,10.0,South,4.6,-,N/A,,Clear,170,2013-09-10 09:35:00
4:55 AM,76.1,63.5,65,30.01,10.0,South,5.8,-,N/A,,Clear,180,2013-09-10 09:55:00
5:15 AM,76.1,63.5,65,30.02,10.0,SSW,6.9,-,N/A,,Clear,200,2013-09-10 10:15:00
5:35 AM,75.6,63.3,66,30.02,10.0,South,6.9,-,N/A,,Clear,180,2013-09-10 10:35:00
5:55 AM,75.0,63.1,66,30.03,10.0,South,5.8,-,N/A,,Clear,170,2013-09-10 10:55:00
6:15 AM,74.5,63.0,67,30.03,10.0,SSE,4.6,-,N/A,,Clear,160,2013-09-10 11:15:00
6:35 AM,73.9,63.0,68,30.04,10.0,SE,4.6,-,N/A,,Clear,140,2013-09-10 11:35:00
6:55 AM,73.4,62.8,69,30.04,10.0,SE,4.6,-,N/A,,Clear,140,2013-09-10 11:55:00
7:15 AM,72.9,63.0,71,30.05,10.0,SE,5.8,-,N/A,,Clear,140,2013-09-10 12:15:00
7:35 AM,72.9,62.8,71,30.06,10.0,SSE,8.1,-,N/A,,Clear,150,2013-09-10 12:35:00
7:55 AM,73.8,62.8,68,30.06,10.0,SE,9.2,-,N/A,,Clear,140,2013-09-10 12:55:00
8:15 AM,75.6,63.3,66,30.07,10.0,SSE,10.4,-,N/A,,Clear,150,2013-09-10 13:15:00
8:35 AM,76.1,63.5,65,30.07,10.0,South,10.4,-,N/A,,Clear,170,2013-09-10 13:35:00
8:55 AM,76.6,63.7,64,30.08,10.0,SSE,11.5,-,N/A,,Clear,160,2013-09-10 13:55:00
9:15 AM,77.5,64.0,63,30.09,10.0,SSE,11.5,-,N/A,,Clear,150,2013-09-10 14:15:00
9:35 AM,-9999,-9999,N/A,30.10,10.0,South,12.7,-,N/A,,Unknown,170,2013-09-10 14:35:00
9:55 AM,78.1,64.4,63,30.10,10.0,South,12.7,-,N/A,,Clear,170,2013-09-10 14:55:00
10:15 AM,78.4,64.6,62,30.10,10.0,South,10.4,-,N/A,,Clear,180,2013-09-10 15:15:00
10:35 AM,81.0,64.4,57,30.10,10.0,SSW,13.8,18.4,N/A,,Clear,200,2013-09-10 15:35:00
10:55 AM,83.8,63.7,51,30.11,10.0,South,13.8,-,N/A,,Clear,170,2013-09-10 15:55:00
11:15 AM,84.6,63.9,50,30.11,10.0,SSW,6.9,-,N/A,,Clear,200,2013-09-10 16:15:00
11:35 AM,86.2,62.6,45,30.11,10.0,SSE,10.4,-,N/A,,Clear,160,2013-09-10 16:35:00
11:55 AM,87.4,61.7,42,30.10,10.0,SSE,15.0,19.6,N/A,,Scattered Clouds,160,2013-09-10 16:55:00
12:15 PM,88.5,60.4,39,30.11,10.0,SSE,16.1,19.6,N/A,,Scattered Clouds,160,2013-09-10 17:15:00
12:35 PM,88.5,61.2,40,30.10,10.0,SSE,12.7,25.3,N/A,,Scattered Clouds,160,2013-09-10 17:35:00
12:55 PM,89.1,60.3,38,30.09,10.0,SSE,15.0,21.9,N/A,,Clear,150,2013-09-10 17:55:00
1:15 PM,89.6,61.0,38,30.09,10.0,South,11.5,-,N/A,,Scattered Clouds,170,2013-09-10 18:15:00
1:35 PM,90.1,61.0,37,30.08,10.0,SSE,11.5,17.3,N/A,,Scattered Clouds,150,2013-09-10 18:35:00
1:55 PM,91.0,60.6,36,30.08,10.0,SSE,12.7,21.9,N/A,,Scattered Clouds,150,2013-09-10 18:55:00
2:15 PM,90.9,60.4,36,30.07,10.0,SE,11.5,19.6,N/A,,Scattered Clouds,140,2013-09-10 19:15:00
2:35 PM,91.2,59.7,35,30.06,10.0,South,16.1,24.2,N/A,,Scattered Clouds,170,2013-09-10 19:35:00
2:55 PM,92.5,59.5,33,30.05,10.0,South,11.5,20.7,N/A,,Clear,170,2013-09-10 19:55:00
3:15 PM,92.1,59.5,33,30.04,10.0,South,17.3,20.7,N/A,,Scattered Clouds,180,2013-09-10 20:15:00
3:35 PM,93.2,59.4,32,30.03,10.0,SSE,12.7,-,N/A,,Scattered Clouds,160,2013-09-10 20:35:00
3:55 PM,92.3,59.5,33,30.03,10.0,SSE,12.7,17.3,N/A,,Scattered Clouds,150,2013-09-10 20:55:00
4:15 PM,93.0,59.5,33,30.02,10.0,South,11.5,18.4,N/A,,Scattered Clouds,170,2013-09-10 21:15:00
4:35 PM,93.7,59.7,32,30.02,10.0,South,17.3,21.9,N/A,,Scattered Clouds,170,2013-09-10 21:35:00
4:55 PM,91.4,59.5,34,30.01,10.0,South,15.0,19.6,N/A,,Scattered Clouds,170,2013-09-10 21:55:00
5:15 PM,91.9,59.7,34,30.01,10.0,South,17.3,23.0,N/A,,Scattered Clouds,190,2013-09-10 22:15:00
5:35 PM,92.8,59.2,32,30.00,10.0,South,13.8,21.9,N/A,,Clear,170,2013-09-10 22:35:00
5:55 PM,92.1,59.4,33,30.00,10.0,SSW,12.7,17.3,N/A,,Clear,200,2013-09-10 22:55:00
6:15 PM,93.2,59.7,33,30.00,10.0,SSW,12.7,-,N/A,,Mostly Cloudy,200,2013-09-10 23:15:00
6:35 PM,92.3,60.3,34,30.00,10.0,SSW,11.5,18.4,N/A,,Scattered Clouds,200,2013-09-10 23:35:00
6:55 PM,91.6,59.2,34,30.00,10.0,South,10.4,-,N/A,,Clear,190,2013-09-10 23:55:00
7:15 PM,91.2,58.5,33,30.00,10.0,South,9.2,-,N/A,,Clear,190,2013-09-11 00:15:00
7:35 PM,90.7,57.9,33,30.00,10.0,South,10.4,16.1,N/A,,Clear,170,2013-09-11 00:35:00
7:55 PM,89.8,57.4,33,30.01,10.0,South,11.5,-,N/A,,Clear,170,2013-09-11 00:55:00
8:15 PM,88.7,57.0,34,30.02,10.0,South,9.2,-,N/A,,Clear,180,2013-09-11 01:15:00
8:35 PM,87.6,57.6,36,30.03,10.0,South,5.8,-,N/A,,Clear,190,2013-09-11 01:35:00
8:55 PM,86.4,58.1,38,30.03,10.0,South,5.8,-,N/A,,Clear,180,2013-09-11 01:55:00
9:15 PM,85.1,58.1,40,30.04,10.0,SSE,5.8,-,N/A,,Scattered Clouds,150,2013-09-11 02:15:00
9:35 PM,85.8,59.7,41,30.05,10.0,SSE,15.0,-,N/A,,Scattered Clouds,160,2013-09-11 02:35:00
9:55 PM,86.4,60.3,41,30.06,10.0,SSE,15.0,-,N/A,,Clear,150,2013-09-11 02:55:00
10:15 PM,85.6,58.5,40,30.07,10.0,SSE,13.8,-,N/A,,Clear,160,2013-09-11 03:15:00
10:35 PM,84.6,59.7,43,30.07,10.0,SSE,10.4,-,N/A,,Clear,160,2013-09-11 03:35:00
10:55 PM,84.2,60.6,45,30.08,10.0,SSE,9.2,-,N/A,,Clear,150,2013-09-11 03:55:00
11:15 PM,83.7,61.2,46,30.08,10.0,SSE,10.4,-,N/A,,Clear,150,2013-09-11 04:15:00
11:35 PM,83.1,61.5,48,30.08,10.0,SSE,9.2,-,N/A,,Clear,150,2013-09-11 04:35:00
11:55 PM,82.2,61.9,50,30.08,10.0,SSE,6.9,-,N/A,,Clear,150,2013-09-11 04:55:00